| time (UTC) | temp C | wind direction | speed KPH | gust KPH | rain 1hr cm | rain 24hr cm | rain mn cm | humidity % | barometer mb |
| 20260508111556 | -2 | 150 | 4.8 | 6.4 | 0.00 | 0.00 | 0.00 | 6550.2 | |
| 20260508111351 | -2 | 126 | 1.6 | 6.4 | 0.00 | 0.00 | 0.00 | 6550.2 | |
| 20260508111147 | -2 | 137 | 3.2 | 6.4 | 0.00 | 0.00 | 0.00 | 6550.2 | |
| 20260508110943 | -2 | 243 | 1.6 | 8.0 | 0.00 | 0.00 | 0.00 | 6550.2 | |
| 20260508110739 | -2 | 199 | 1.6 | 8.0 | 0.00 | 0.00 | 0.00 | 6550.2 | |
| 20260508105515 | -2 | 173 | 6.4 | 6.4 | 0.00 | 0.00 | 0.00 | 6550.2 | |
| 20260508105311 | -2 | 207 | 3.2 | 6.4 | 0.00 | 0.00 | 0.00 | 6550.2 | |
| 20260508104659 | -2 | 220 | 0.0 | 4.8 | 0.00 | 0.00 | 0.00 | 6550.2 | |
| 20260508104321 | -2 | 201 | 3.2 | 11.3 | 0.00 | 0.00 | 0.00 | 6550.2 | |
| 20260508103717 | -2 | 259 | 1.6 | 11.3 | 0.00 | 0.00 | 0.00 | 6550.2 | |
| 20260508103435 | -2 | 221 | 6.4 | 11.3 | 0.00 | 0.00 | 0.00 | 6550.2 | |
| 20260508103232 | -2 | 191 | 6.4 | 11.3 | 0.00 | 0.00 | 0.00 | 6550.2 | |
| 20260508102432 | -2 | 131 | 4.8 | 9.7 | 0.00 | 0.00 | 0.00 | 6550.2 | |
| 20260508102040 | -2 | 178 | 4.8 | 9.7 | 0.00 | 0.00 | 0.00 | 6550.2 | |
| 20260508101600 | -2 | 218 | 3.2 | 6.4 | 0.00 | 0.00 | 0.00 | 6550.2 | |
| 20260508101355 | -2 | 243 | 4.8 | 6.4 | 0.00 | 0.00 | 0.00 | 6550.2 | |
| 20260508101152 | -2 | 175 | 1.6 | 9.7 | 0.00 | 0.00 | 0.00 | 6550.2 | |
| 20260508101021 | -2 | 225 | 1.6 | 9.7 | 0.00 | 0.00 | 0.00 | 6550.2 | |
| 20260508100744 | -2 | 165 | 8.0 | 14.5 | 0.00 | 0.00 | 0.00 | 6550.2 | |
| 20260508095316 | -2 | 135 | 6.4 | 9.7 | 0.00 | 0.00 | 0.00 | 6550.2 | |
| 20260508095112 | -2 | 243 | 3.2 | 9.7 | 0.00 | 0.00 | 0.00 | 6550.2 | |
| 20260508095008 | -2 | 252 | 4.8 | 14.5 | 0.00 | 0.00 | 0.00 | 6550.2 | |
| 20260508094908 | -2 | 252 | 4.8 | 14.5 | 0.00 | 0.00 | 0.00 | 6550.2 | |
| 20260508094533 | -2 | 202 | 0.0 | 6.4 | 0.00 | 0.00 | 0.00 | 6550.2 | |
| 20260508094018 | -2 | 90 | 4.8 | 9.7 | 0.00 | 0.00 | 0.03 | 6550.2 | |
| 20260508093138 | -2 | 190 | 1.6 | 11.3 | 0.00 | 0.00 | 0.03 | 6550.2 | |
| 20260508092526 | -2 | 159 | 4.8 | 20.9 | 0.00 | 0.00 | 0.03 | 6550.2 | |
| 20260508092322 | -2 | 171 | 9.7 | 9.7 | 0.00 | 0.00 | 0.03 | 6550.2 | |
| 20260508092118 | -2 | 218 | 6.4 | 11.3 | 0.00 | 0.00 | 0.00 | 6550.2 | |
| 20260508091914 | -2 | 193 | 4.8 | 11.3 | 0.00 | 0.00 | 0.00 | 6550.2 | |
| 20260508091506 | -2 | 205 | 4.8 | 11.3 | 0.00 | 0.00 | 0.00 | 6550.2 | |
| 20260508091302 | -2 | 188 | 6.4 | 11.3 | 0.00 | 0.00 | 0.00 | 6550.2 | |
| 20260508091058 | -2 | 222 | 11.3 | 11.3 | 0.00 | 0.00 | 0.00 | 6550.2 | |
| 20260508090759 | -2 | 197 | 4.8 | 11.3 | 0.00 | 0.00 | 0.00 | 6550.2 | |
| 20260508090650 | -2 | 197 | 4.8 | 11.3 | 0.00 | 0.00 | 0.00 | 6550.2 | |
| 20260508090242 | -2 | 221 | 4.8 | 11.3 | 0.00 | 0.00 | 0.00 | 6550.2 | |
| 20260508085834 | -2 | 229 | 1.6 | 6.4 | 0.00 | 0.00 | 0.00 | 6550.2 | |
| 20260508085426 | -2 | 148 | 0.0 | 1.6 | 0.00 | 0.00 | 0.00 | 6550.2 | |
| 20260508085222 | -2 | 189 | 0.0 | 4.8 | 0.00 | 0.00 | 0.00 | 6550.2 | |
| 20260508084814 | -2 | 193 | 3.2 | 4.8 | 0.00 | 0.00 | 0.00 | 6550.2 | |
| 20260508084406 | -2 | 180 | 0.0 | 8.0 | 0.00 | 0.00 | 0.00 | 6550.2 | |
| 20260508084202 | -2 | 266 | 8.0 | 8.0 | 0.00 | 0.00 | 0.00 | 6550.2 | |
| 20260508083958 | -2 | 270 | 3.2 | 6.4 | 0.00 | 0.00 | 0.00 | 6550.2 | |
| 20260508083754 | -2 | 238 | 0.0 | 6.4 | 0.00 | 0.00 | 0.00 | 6550.2 | |
| 20260508083550 | -2 | 264 | 4.8 | 4.8 | 0.00 | 0.00 | 0.00 | 6550.2 | |
| 20260508083346 | -2 | 225 | 0.0 | 6.4 | 0.00 | 0.00 | 0.00 | 6550.2 | |
| 20260508083142 | -2 | 224 | 3.2 | 6.4 | 0.00 | 0.00 | 0.00 | 6550.2 | |
| 20260508082938 | -2 | 112 | 0.0 | 0.0 | 0.00 | 0.00 | 0.00 | 6550.2 | |
| 20260508082805 | -2 | 255 | 3.2 | 8.0 | 0.00 | 0.00 | 0.00 | 6550.2 | |
| 20260508082601 | -2 | 240 | 3.2 | 6.4 | 0.00 | 0.00 | 0.00 | 6550.2 | |
| 20260508082357 | -2 | 225 | 1.6 | 4.8 | 0.00 | 0.00 | 0.00 | 6550.2 | |
| 20260508082153 | -2 | 225 | 1.6 | 6.4 | 0.00 | 0.00 | 0.00 | 6550.2 | |
| 20260508081949 | -2 | 180 | 1.6 | 6.4 | 0.00 | 0.00 | 0.00 | 6550.2 | |
| 20260508081745 | -2 | 242 | 3.2 | 6.4 | 0.00 | 0.00 | 0.00 | 6550.2 | |
| 20260508081541 | -2 | 213 | 3.2 | 8.0 | 0.00 | 0.00 | 0.00 | 6550.2 | |
| 20260508081337 | -2 | 222 | 6.4 | 8.0 | 0.00 | 0.00 | 0.00 | 6550.2 | |
| 20260508081133 | -2 | 207 | 8.0 | 8.0 | 0.00 | 0.00 | 0.00 | 6550.2 | |
| 20260508080929 | -2 | 120 | 0.0 | 0.0 | 0.00 | 0.00 | 0.00 | 6550.2 | |
| 20260508080918 | -2 | 173 | 0.0 | 6.4 | 0.00 | 0.00 | 0.03 | 6550.2 | |
| 20260508080714 | -2 | 205 | 3.2 | 6.4 | 0.00 | 0.00 | 0.03 | 6550.2 | |
| 20260508080510 | -2 | 228 | 1.6 | 6.4 | 0.00 | 0.00 | 0.03 | 6550.2 | |
| 20260508080307 | -2 | 198 | 1.6 | 6.4 | 0.00 | 0.00 | 0.03 | 6550.2 | |
| 20260508075858 | -2 | 180 | 3.2 | 6.4 | 0.00 | 0.00 | 0.03 | 6550.2 | |
| 20260508075654 | -2 | 201 | 4.8 | 6.4 | 0.00 | 0.00 | 0.03 | 6550.2 | |
| 20260508075450 | -2 | 188 | 1.6 | 4.8 | 0.00 | 0.00 | 0.03 | 6550.2 | |
| 20260508075246 | -2 | 235 | 4.8 | 4.8 | 0.00 | 0.00 | 0.03 | 6550.2 | |
| 20260508075042 | -2 | 231 | 1.6 | 4.8 | 0.00 | 0.00 | 0.03 | 6550.2 | |
| 20260508074838 | -2 | 225 | 1.6 | 6.4 | 0.00 | 0.00 | 0.03 | 6550.2 | |
| 20260508074634 | -2 | 207 | 4.8 | 6.4 | 0.00 | 0.00 | 0.03 | 6550.2 | |
| 20260508074430 | -2 | 198 | 1.6 | 4.8 | 0.00 | 0.00 | 0.03 | 6550.2 | |
| 20260508074226 | -2 | 217 | 1.6 | 4.8 | 0.00 | 0.00 | 0.03 | 6550.2 | |
| 20260508074022 | -2 | 225 | 3.2 | 4.8 | 0.00 | 0.00 | 0.03 | 6550.2 | |
| 20260508073908 | -2 | 146 | 1.6 | 4.8 | 0.00 | 0.00 | 0.03 | 6550.2 | |
| 20260508073819 | -2 | 146 | 1.6 | 4.8 | 0.00 | 0.00 | 0.03 | 6550.2 | |
| 20260508073614 | -2 | 218 | 0.0 | 3.2 | 0.00 | 0.00 | 0.03 | 6550.2 | |
| 20260508073411 | -2 | 225 | 1.6 | 3.2 | 0.00 | 0.00 | 0.03 | 6550.2 | |
| 20260508073206 | -2 | 180 | 0.0 | 3.2 | 0.00 | 0.00 | 0.03 | 6550.2 | |
| 20260508073003 | -2 | 176 | 3.2 | 3.2 | 0.00 | 0.00 | 0.03 | 6550.2 | |
| 20260508072758 | -2 | 203 | 1.6 | 4.8 | 0.00 | 0.00 | 0.03 | 6550.2 | |
| 20260508072555 | -2 | 225 | 1.6 | 4.8 | 0.00 | 0.00 | 0.03 | 6550.2 | |
| 20260508072350 | -2 | 160 | 1.6 | 4.8 | 0.00 | 0.00 | 0.03 | 6550.2 | |
| 20260508072147 | -2 | 180 | 1.6 | 1.6 | 0.00 | 0.00 | 0.03 | 6550.2 | |
| 20260508071942 | -2 | 180 | 0.0 | 1.6 | 0.00 | 0.00 | 0.03 | 6550.2 | |
| 20260508071819 | -2 | 135 | 1.6 | 3.2 | 0.00 | 0.00 | 0.03 | 6550.2 | |
| 20260508071739 | -2 | 135 | 1.6 | 3.2 | 0.00 | 0.00 | 0.03 | 6550.2 | |
| 20260508071534 | -2 | 146 | 0.0 | 3.2 | 0.00 | 0.00 | 0.03 | 6550.2 | |
| 20260508071331 | -2 | 181 | 1.6 | 3.2 | 0.00 | 0.00 | 0.03 | 6550.2 | |
| 20260508071137 | -2 | 135 | 0.0 | 0.0 | 0.00 | 0.00 | 0.03 | 6550.2 | |
| 20260508071017 | -2 | 180 | 0.0 | 0.0 | 0.00 | 0.00 | 0.03 | 6550.2 | |
| 20260508070923 | -2 | 180 | 0.0 | 0.0 | 0.00 | 0.00 | 0.03 | 6550.2 | |
| 20260508070752 | -2 | 180 | 0.0 | 1.6 | 0.00 | 0.00 | 0.03 | 6550.2 | |
| 20260508070718 | -2 | 180 | 0.0 | 1.6 | 0.00 | 0.00 | 0.03 | 6550.2 | |
| 20260508070515 | -2 | 225 | 0.0 | 1.6 | 0.00 | 0.00 | 0.03 | 6550.2 | |
| 20260508070107 | -2 | 0 | 0.0 | 0.0 | 0.00 | 0.00 | 0.03 | 6550.2 | |
| 20260508065903 | -2 | 0 | 0.0 | 0.0 | 0.00 | 0.00 | 0.03 | 6550.2 | |
| 20260508065659 | -2 | 180 | 0.0 | 1.6 | 0.00 | 0.00 | 0.03 | 6550.2 | |
| 20260508065455 | -2 | 180 | 0.0 | 1.6 | 0.00 | 0.00 | 0.03 | 6550.2 | |
| 20260508065251 | -2 | 180 | 0.0 | 1.6 | 0.00 | 0.00 | 0.03 | 6550.2 | |
| 20260508065047 | -2 | 225 | 0.0 | 0.0 | 0.00 | 0.00 | 0.03 | 6550.2 | |
| 20260508064843 | -2 | 180 | 0.0 | 0.0 | 0.00 | 0.00 | 0.03 | 6550.2 | |
| 20260508064639 | -2 | 180 | 0.0 | 1.6 | 0.00 | 0.00 | 0.03 | 6550.2 | |
| 20260508064231 | -2 | 45 | 1.6 | 1.6 | 0.00 | 0.00 | 0.03 | 6550.2 | |
| 20260508064027 | -2 | 315 | 0.0 | 3.2 | 0.00 | 0.00 | 0.03 | 6550.2 | |
| 20260508063823 | -2 | 315 | 0.0 | 3.2 | 0.00 | 0.00 | 0.03 | 6550.2 | |
| 20260508063619 | -2 | 315 | 0.0 | 3.2 | 0.00 | 0.00 | 0.03 | 6550.2 | |
| 20260508063415 | -2 | 289 | 1.6 | 1.6 | 0.00 | 0.00 | 0.03 | 6550.2 | |
| 20260508063251 | -2 | 180 | 0.0 | 0.0 | 0.00 | 0.00 | 0.03 | 6550.2 | |
| 20260508063211 | -2 | 180 | 0.0 | 0.0 | 0.00 | 0.00 | 0.03 | 6550.2 | |
| 20260508063007 | -2 | 225 | 0.0 | 1.6 | 0.00 | 0.00 | 0.03 | 6550.2 | |
| 20260508062803 | -2 | 180 | 0.0 | 1.6 | 0.00 | 0.00 | 0.03 | 6550.2 | |
| 20260508062559 | -2 | 180 | 0.0 | 1.6 | 0.00 | 0.00 | 0.03 | 6550.2 | |
| 20260508062432 | -2 | 135 | 0.0 | 1.6 | 0.00 | 0.00 | 0.03 | 6550.2 | |
| 20260508062355 | -2 | 135 | 0.0 | 1.6 | 0.00 | 0.00 | 0.03 | 6550.2 | |
| 20260508062151 | -2 | 137 | 0.0 | 1.6 | 0.00 | 0.00 | 0.03 | 6550.2 | |
| 20260508062021 | -2 | 124 | 1.6 | 1.6 | 0.00 | 0.00 | 0.03 | 6550.2 | |
| 20260508061947 | -2 | 124 | 1.6 | 1.6 | 0.00 | 0.00 | 0.03 | 6550.2 | |
| 20260508061539 | -2 | 180 | 1.6 | 3.2 | 0.00 | 0.00 | 0.03 | 6550.2 | |
| 20260508061131 | -2 | 92 | 1.6 | 3.2 | 0.00 | 0.00 | 0.03 | 6550.2 | |
| 20260508060927 | -2 | 179 | 0.0 | 1.6 | 0.00 | 0.00 | 0.03 | 6550.2 | |
| 20260508060723 | -2 | 144 | 1.6 | 3.2 | 0.00 | 0.00 | 0.03 | 6550.2 | |
| 20260508060519 | -2 | 135 | 0.0 | 3.2 | 0.00 | 0.00 | 0.03 | 6550.2 | |
| 20260508060355 | -2 | 69 | 0.0 | 3.2 | 0.00 | 0.00 | 0.03 | 6550.2 | |
| 20260508060315 | -2 | 69 | 0.0 | 3.2 | 0.00 | 0.00 | 0.03 | 6550.2 | |
| 20260508060111 | -2 | 148 | 0.0 | 3.2 | 0.00 | 0.00 | 0.03 | 6550.2 | |
| 20260508060006 | -2 | 84 | 3.2 | 3.2 | 0.00 | 0.00 | 0.03 | 6550.2 | |
| 20260508055907 | -2 | 84 | 3.2 | 3.2 | 0.00 | 0.00 | 0.03 | 6550.2 | |
| 20260508055738 | -2 | 90 | 1.6 | 1.6 | 0.00 | 0.00 | 0.03 | 6550.2 | |
| 20260508055703 | -2 | 90 | 1.6 | 1.6 | 0.00 | 0.00 | 0.03 | 6550.2 | |
| 20260508055537 | -2 | 135 | 0.0 | 1.6 | 0.00 | 0.00 | 0.03 | 6550.2 | |
| 20260508055459 | -2 | 135 | 0.0 | 1.6 | 0.00 | 0.00 | 0.03 | 6550.2 | |
| 20260508055255 | -2 | 135 | 1.6 | 3.2 | 0.00 | 0.00 | 0.03 | 6550.2 | |
| 20260508055143 | -2 | 121 | 1.6 | 3.2 | 0.00 | 0.00 | 0.03 | 6550.2 | |
| 20260508055051 | -2 | 121 | 1.6 | 3.2 | 0.00 | 0.00 | 0.03 | 6550.2 | |
| 20260508054847 | -2 | 135 | 1.6 | 3.2 | 0.00 | 0.00 | 0.03 | 6550.2 | |
| 20260508054739 | -2 | 130 | 0.0 | 1.6 | 0.00 | 0.00 | 0.03 | 6550.2 | |
| 20260508054643 | -2 | 130 | 0.0 | 1.6 | 0.00 | 0.00 | 0.03 | 6550.2 | |
| 20260508054309 | -2 | 135 | 0.0 | 0.0 | 0.00 | 0.00 | 0.03 | 6550.2 | |
| 20260508054235 | -2 | 135 | 0.0 | 0.0 | 0.00 | 0.00 | 0.03 | 6550.2 | |
| 20260508054031 | -2 | 161 | 0.0 | 1.6 | 0.00 | 0.00 | 0.03 | 6550.2 | |
| 20260508053623 | -2 | 90 | 0.0 | 1.6 | 0.00 | 0.00 | 0.03 | 6550.2 | |
| 20260508053503 | -2 | 148 | 0.0 | 1.6 | 0.00 | 0.00 | 0.03 | 6550.2 | |
| 20260508053419 | -2 | 148 | 0.0 | 1.6 | 0.00 | 0.00 | 0.03 | 6550.2 | |
| 20260508053259 | -2 | 180 | 0.0 | 1.6 | 0.00 | 0.00 | 0.03 | 6550.2 | |
| 20260508053215 | -2 | 180 | 0.0 | 1.6 | 0.00 | 0.00 | 0.03 | 6550.2 | |
| 20260508053046 | -2 | 135 | 0.0 | 1.6 | 0.00 | 0.00 | 0.03 | 6550.2 | |
| 20260508053011 | -2 | 135 | 0.0 | 1.6 | 0.00 | 0.00 | 0.03 | 6550.2 | |
| 20260508052603 | -2 | 93 | 1.6 | 1.6 | 0.00 | 0.00 | 0.03 | 6550.2 | |
| 20260508052434 | -2 | 135 | 0.0 | 3.2 | 0.00 | 0.00 | 0.03 | 6550.2 | |
| 20260508052359 | -2 | 135 | 0.0 | 3.2 | 0.00 | 0.00 | 0.03 | 6550.2 | |
| 20260508052230 | -2 | 135 | 0.0 | 3.2 | 0.00 | 0.00 | 0.03 | 6550.2 | |
| 20260508052155 | -2 | 135 | 0.0 | 3.2 | 0.00 | 0.00 | 0.03 | 6550.2 | |
| 20260508051826 | -2 | 126 | 0.0 | 1.6 | 0.00 | 0.00 | 0.03 | 6550.2 | |
| 20260508051747 | -2 | 126 | 0.0 | 1.6 | 0.00 | 0.00 | 0.03 | 6550.2 | |
| 20260508051624 | -2 | 135 | 1.6 | 1.6 | 0.00 | 0.00 | 0.03 | 6550.2 | |
| 20260508051543 | -2 | 135 | 1.6 | 1.6 | 0.00 | 0.00 | 0.03 | 6550.2 | |
| 20260508051435 | -2 | 180 | 0.0 | 0.0 | 0.00 | 0.00 | 0.03 | 6550.2 | |
| 20260508051339 | -2 | 180 | 0.0 | 0.0 | 0.00 | 0.00 | 0.03 | 6550.2 | |
| 20260508051135 | -2 | 180 | 0.0 | 0.0 | 0.00 | 0.00 | 0.03 | 6550.2 | |
| 20260508050931 | -2 | 89 | 0.0 | 1.6 | 0.00 | 0.00 | 0.03 | 6550.2 | |
| 20260508050727 | -2 | 89 | 0.0 | 1.6 | 0.00 | 0.00 | 0.03 | 6550.2 | |
| 20260508050524 | -2 | 97 | 0.0 | 0.0 | 0.00 | 0.00 | 0.03 | 6550.2 | |
| 20260508050319 | -2 | 176 | 0.0 | 1.6 | 0.00 | 0.00 | 0.03 | 6550.2 | |
| 20260508050116 | -2 | 225 | 0.0 | 3.2 | 0.00 | 0.00 | 0.03 | 6550.2 | |
| 20260508045911 | -2 | 225 | 0.0 | 3.2 | 0.00 | 0.00 | 0.03 | 6550.2 | |
| 20260508045708 | -2 | 135 | 0.0 | 3.2 | 0.00 | 0.00 | 0.03 | 6550.2 | |
| 20260508045503 | -2 | 73 | 0.0 | 1.6 | 0.00 | 0.00 | 0.03 | 6550.2 | |
| 20260508045300 | -2 | 89 | 0.0 | 1.6 | 0.00 | 0.00 | 0.03 | 6550.2 | |
| 20260508045055 | -2 | 89 | 0.0 | 1.6 | 0.00 | 0.00 | 0.03 | 6550.2 | |
| 20260508044852 | -2 | 135 | 1.6 | 3.2 | 0.00 | 0.00 | 0.03 | 6550.2 | |
| 20260508044444 | -2 | 176 | 1.6 | 3.2 | 0.00 | 0.00 | 0.00 | 6550.2 | |
| 20260508044239 | -2 | 149 | 0.0 | 3.2 | 0.00 | 0.00 | 0.00 | 6550.2 | |
| 20260508044036 | -2 | 180 | 0.0 | 3.2 | 0.00 | 0.00 | 0.00 | 6550.2 | |
| 20260508043831 | -2 | 135 | 1.6 | 3.2 | 0.00 | 0.00 | 0.00 | 6550.2 | |
| 20260508043628 | -2 | 135 | 0.0 | 3.2 | 0.00 | 0.00 | 0.00 | 6550.2 | |
| 20260508043423 | -2 | 135 | 1.6 | 3.2 | 0.00 | 0.00 | 0.00 | 6550.2 | |
| 20260508043220 | -2 | 135 | 0.0 | 1.6 | 0.00 | 0.00 | 0.00 | 6550.2 | |
| 20260508043015 | -2 | 135 | 0.0 | 3.2 | 0.00 | 0.00 | 0.00 | 6550.2 | |
| 20260508042812 | -2 | 180 | 0.0 | 3.2 | 0.00 | 0.00 | 0.00 | 6550.2 | |
| 20260508042607 | -2 | 135 | 3.2 | 3.2 | 0.00 | 0.00 | 0.00 | 6550.2 | |
| 20260508042404 | -2 | 90 | 0.0 | 3.2 | 0.00 | 0.00 | 0.00 | 6550.2 | |
| 20260508042200 | -2 | 138 | 0.0 | 3.2 | 0.00 | 0.00 | 0.00 | 6550.2 | |
| 20260508041956 | -2 | 115 | 1.6 | 3.2 | 0.00 | 0.00 | 0.00 | 6550.2 | |
| 20260508041752 | -2 | 133 | 1.6 | 3.2 | 0.00 | 0.00 | 0.00 | 6550.2 | |
| 20260508041548 | -2 | 132 | 1.6 | 3.2 | 0.00 | 0.00 | 0.00 | 6550.2 | |
| 20260508041140 | -2 | 87 | 1.6 | 3.2 | 0.00 | 0.00 | 0.00 | 6550.2 | |
| 20260508040936 | -2 | 132 | 1.6 | 3.2 | 0.00 | 0.00 | 0.00 | 6550.2 | |
| 20260508040732 | -2 | 135 | 1.6 | 3.2 | 0.00 | 0.00 | 0.00 | 6550.2 | |
| 20260508040528 | -2 | 125 | 1.6 | 3.2 | 0.00 | 0.00 | 0.00 | 6550.2 | |
| 20260508040324 | -2 | 185 | 0.0 | 3.2 | 0.00 | 0.00 | 0.00 | 6550.2 | |
| 20260508040152 | -2 | 157 | 1.6 | 3.2 | 0.00 | 0.00 | 0.00 | 6550.2 | |
| 20260508040120 | -2 | 157 | 1.6 | 3.2 | 0.00 | 0.00 | 0.00 | 6550.2 | |
| 20260508035916 | -2 | 140 | 1.6 | 3.2 | 0.00 | 0.00 | 0.00 | 6550.2 | |
| 20260508035712 | -2 | 137 | 1.6 | 3.2 | 0.00 | 0.00 | 0.00 | 6550.2 | |
| 20260508035602 | -2 | 177 | 1.6 | 3.2 | 0.00 | 0.00 | 0.00 | 6550.2 | |
| 20260508035508 | -2 | 177 | 1.6 | 3.2 | 0.00 | 0.00 | 0.00 | 6550.2 | |
| 20260508035306 | -2 | 101 | 1.6 | 3.2 | 0.00 | 0.00 | 0.00 | 6550.2 | |
| 20260508035100 | -2 | 150 | 1.6 | 4.8 | 0.00 | 0.00 | 0.00 | 6550.2 | |
| 20260508034856 | -2 | 245 | 1.6 | 4.8 | 0.00 | 0.00 | 0.00 | 6550.2 | |
| 20260508034725 | -2 | 125 | 1.6 | 4.8 | 0.00 | 0.00 | 0.00 | 6550.2 | |
| 20260508034652 | -2 | 125 | 1.6 | 4.8 | 0.00 | 0.00 | 0.00 | 6550.2 | |
| 20260508034448 | -2 | 123 | 0.0 | 3.2 | 0.00 | 0.00 | 0.00 | 6550.2 | |
| 20260508034244 | -2 | 178 | 1.6 | 4.8 | 0.00 | 0.00 | 0.00 | 6550.2 | |
| 20260508034040 | -2 | 195 | 1.6 | 4.8 | 0.00 | 0.00 | 0.00 | 6550.2 | |
| 20260508033428 | -2 | 135 | 0.0 | 3.2 | 0.00 | 0.00 | 0.00 | 6550.2 | |
| 20260508033224 | -2 | 111 | 1.6 | 3.2 | 0.00 | 0.00 | 0.00 | 6550.2 | |
| 20260508033020 | -2 | 225 | 0.0 | 3.2 | 0.00 | 0.00 | 0.00 | 6550.2 | |
| 20260508032816 | -2 | 174 | 3.2 | 3.2 | 0.00 | 0.00 | 0.00 | 6550.2 | |
| 20260508032612 | -2 | 190 | 1.6 | 3.2 | 0.00 | 0.00 | 0.00 | 6550.2 | |
| 20260508032408 | -2 | 196 | 0.0 | 4.8 | 0.00 | 0.00 | 0.00 | 6550.2 | |
| 20260508032204 | -2 | 129 | 1.6 | 4.8 | 0.00 | 0.00 | 0.00 | 6550.2 | |
| 20260508032000 | -2 | 178 | 0.0 | 3.2 | 0.00 | 0.00 | 0.00 | 6550.2 | |
| 20260508031756 | -2 | 139 | 0.0 | 3.2 | 0.00 | 0.00 | 0.00 | 6550.2 | |
| 20260508031552 | -2 | 135 | 0.0 | 3.2 | 0.00 | 0.00 | 0.00 | 6550.2 | |
| 20260508031348 | -2 | 111 | 0.0 | 0.0 | 0.00 | 0.00 | 0.00 | 6550.2 | |
| 20260508031146 | -2 | 135 | 0.0 | 3.2 | 0.00 | 0.00 | 0.00 | 6550.2 | |
| 20260508031030 | -2 | 150 | 0.0 | 4.8 | 0.00 | 0.00 | 0.00 | 6550.2 | |
| 20260508030942 | -2 | 150 | 0.0 | 4.8 | 0.00 | 0.00 | 0.00 | 6550.2 | |
| 20260508030738 | -2 | 180 | 1.6 | 4.8 | 0.00 | 0.00 | 0.00 | 6550.2 | |
| 20260508030534 | -2 | 270 | 1.6 | 4.8 | 0.00 | 0.00 | 0.00 | 6550.2 | |
| 20260508030126 | -2 | 192 | 0.0 | 4.8 | 0.00 | 0.00 | 0.00 | 6550.2 | |
| 20260508025922 | -2 | 154 | 1.6 | 3.2 | 0.00 | 0.00 | 0.00 | 6550.2 | |
| 20260508025718 | -2 | 143 | 0.0 | 3.2 | 0.00 | 0.00 | 0.00 | 6550.2 | |
| 20260508025514 | -2 | 180 | 0.0 | 3.2 | 0.00 | 0.00 | 0.00 | 6550.2 | |
| 20260508025310 | -2 | 180 | 1.6 | 3.2 | 0.00 | 0.00 | 0.00 | 6550.2 | |
| 20260508025106 | -2 | 171 | 1.6 | 4.8 | 0.00 | 0.00 | 0.00 | 6550.2 | |
| 20260508024902 | -2 | 180 | 1.6 | 4.8 | 0.00 | 0.00 | 0.00 | 6550.2 | |
| 20260508024658 | -2 | 171 | 1.6 | 4.8 | 0.00 | 0.00 | 0.00 | 6550.2 | |
| 20260508024454 | -2 | 180 | 1.6 | 3.2 | 0.00 | 0.00 | 0.00 | 6550.2 | |
| 20260508024328 | -2 | 180 | 3.2 | 3.2 | 0.00 | 0.00 | 0.00 | 6550.2 | |
| 20260508024250 | -2 | 180 | 3.2 | 3.2 | 0.00 | 0.00 | 0.00 | 6550.2 | |
| 20260508024046 | -2 | 135 | 1.6 | 3.2 | 0.00 | 0.00 | 0.00 | 6550.2 | |
| 20260508023907 | -2 | 179 | 1.6 | 3.2 | 0.00 | 0.00 | 0.00 | 6550.2 | |
| 20260508023638 | -2 | 135 | 0.0 | 3.2 | 0.00 | 0.00 | 0.00 | 6550.2 | |
| 20260508023506 | -2 | 135 | 0.0 | 3.2 | 0.00 | 0.00 | 0.00 | 6550.2 | |
| 20260508023434 | -2 | 135 | 0.0 | 3.2 | 0.00 | 0.00 | 0.00 | 6550.2 | |
| 20260508023230 | -2 | 192 | 1.6 | 3.2 | 0.00 | 0.00 | 0.00 | 6550.2 | |
| 20260508023026 | -2 | 185 | 3.2 | 3.2 | 0.00 | 0.00 | 0.00 | 6550.2 | |
| 20260508022823 | -2 | 212 | 1.6 | 3.2 | 0.00 | 0.00 | 0.00 | 6550.2 | |
| 20260508022618 | -2 | 180 | 3.2 | 4.8 | 0.00 | 0.00 | 0.00 | 6550.2 | |
| 20260508022210 | -2 | 130 | 0.0 | 0.0 | 0.00 | 0.00 | 0.00 | 6550.2 | |
| 20260508022124 | -2 | 226 | 0.0 | 4.8 | 0.00 | 0.00 | 0.03 | 6550.2 | |
| 20260508021919 | -2 | 180 | 0.0 | 4.8 | 0.00 | 0.00 | 0.03 | 6550.2 | |
| 20260508021716 | -2 | 201 | 1.6 | 4.8 | 0.00 | 0.00 | 0.03 | 6550.2 | |
| 20260508021511 | -2 | 192 | 3.2 | 4.8 | 0.00 | 0.00 | 0.03 | 6550.2 | |
| 20260508021103 | -2 | 180 | 1.6 | 4.8 | 0.00 | 0.00 | 0.03 | 6550.2 | |
| 20260508020900 | -2 | 165 | 1.6 | 4.8 | 0.00 | 0.00 | 0.03 | 6550.2 | |
| 20260508020656 | -2 | 214 | 1.6 | 4.8 | 0.00 | 0.00 | 0.03 | 6550.2 | |
| 20260508020527 | -2 | 359 | 0.0 | 4.8 | 0.00 | 0.00 | 0.03 | 6550.2 | |
| 20260508020452 | -2 | 359 | 0.0 | 4.8 | 0.00 | 0.00 | 0.03 | 6550.2 | |
| 20260508020247 | -2 | 180 | 1.6 | 4.8 | 0.00 | 0.00 | 0.03 | 6550.2 | |
| 20260508020044 | -2 | 225 | 0.0 | 4.8 | 0.00 | 0.00 | 0.03 | 6550.2 | |
| 20260508015912 | -2 | 189 | 3.2 | 4.8 | 0.00 | 0.00 | 0.03 | 6550.2 | |
| 20260508015839 | -2 | 189 | 3.2 | 4.8 | 0.00 | 0.00 | 0.03 | 6550.2 | |
| 20260508015707 | -2 | 180 | 3.2 | 4.8 | 0.00 | 0.00 | 0.03 | 6550.2 | |
| 20260508015636 | -2 | 180 | 3.2 | 4.8 | 0.00 | 0.00 | 0.03 | 6550.2 | |
| 20260508015505 | -2 | 165 | 1.6 | 4.8 | 0.00 | 0.00 | 0.03 | 6550.2 | |
| 20260508015431 | -2 | 165 | 1.6 | 4.8 | 0.00 | 0.00 | 0.03 | 6550.2 | |
| 20260508015305 | -2 | 211 | 1.6 | 4.8 | 0.00 | 0.00 | 0.03 | 6550.2 | |
| 20260508015228 | -2 | 211 | 1.6 | 4.8 | 0.00 | 0.00 | 0.03 | 6550.2 | |
| 20260508015023 | -2 | 180 | 4.8 | 6.4 | 0.00 | 0.00 | 0.03 | 6550.2 | |
| 20260508014820 | -2 | 173 | 1.6 | 6.4 | 0.00 | 0.00 | 0.03 | 6550.2 | |
| 20260508014616 | -2 | 180 | 3.2 | 6.4 | 0.00 | 0.00 | 0.03 | 6550.2 | |
| 20260508014412 | -2 | 201 | 1.6 | 4.8 | 0.00 | 0.00 | 0.03 | 6550.2 | |
| 20260508014208 | -2 | 225 | 1.6 | 3.2 | 0.00 | 0.00 | 0.03 | 6550.2 | |
| 20260508014004 | -2 | 203 | 1.6 | 6.4 | 0.00 | 0.00 | 0.03 | 6550.2 | |
| 20260508013800 | -2 | 174 | 1.6 | 6.4 | 0.00 | 0.00 | 0.03 | 6550.2 | |
| 20260508013653 | -2 | 150 | 4.8 | 6.4 | 0.00 | 0.00 | 0.03 | 6550.2 | |
| 20260508013556 | -2 | 150 | 4.8 | 6.4 | 0.00 | 0.00 | 0.03 | 6550.2 | |
| 20260508013352 | -2 | 135 | 1.6 | 3.2 | 0.00 | 0.00 | 0.03 | 6550.2 | |
| 20260508013148 | -2 | 135 | 0.0 | 1.6 | 0.00 | 0.00 | 0.03 | 6550.2 | |
| 20260508012740 | -2 | 180 | 0.0 | 0.0 | 0.00 | 0.00 | 0.03 | 6550.2 | |
| 20260508012536 | -2 | 180 | 0.0 | 1.6 | 0.00 | 0.00 | 0.03 | 6550.2 | |
| 20260508012434 | -2 | 180 | 0.0 | 1.6 | 0.00 | 0.00 | 0.03 | 6550.2 | |
| 20260508012332 | -2 | 180 | 0.0 | 1.6 | 0.00 | 0.00 | 0.03 | 6550.2 | |
| 20260508012128 | -2 | 139 | 1.6 | 1.6 | 0.00 | 0.00 | 0.03 | 6550.2 | |
| 20260508011924 | -2 | 135 | 1.6 | 3.2 | 0.00 | 0.00 | 0.03 | 6550.2 | |
| 20260508011751 | -2 | 135 | 1.6 | 3.2 | 0.00 | 0.00 | 0.03 | 6550.2 | |
| 20260508011720 | -2 | 135 | 1.6 | 3.2 | 0.00 | 0.00 | 0.03 | 6550.2 | |
| 20260508011516 | -2 | 135 | 0.0 | 3.2 | 0.00 | 0.00 | 0.03 | 6550.2 | |
| 20260508011312 | -2 | 135 | 1.6 | 1.6 | 0.00 | 0.00 | 0.03 | 6550.2 | |
| 20260508011108 | -2 | 135 | 0.0 | 1.6 | 0.00 | 0.00 | 0.03 | 6550.2 | |
| 20260508010904 | -2 | 135 | 0.0 | 1.6 | 0.00 | 0.00 | 0.00 | 6550.2 | |
| 20260508010700 | -2 | 135 | 0.0 | 1.6 | 0.00 | 0.00 | 0.00 | 6550.2 | |
| 20260508010456 | -2 | 180 | 0.0 | 1.6 | 0.00 | 0.00 | 0.00 | 6550.2 | |
| 20260508010252 | -2 | 135 | 1.6 | 1.6 | 0.00 | 0.00 | 0.00 | 6550.2 | |
| 20260508010048 | -2 | 135 | 0.0 | 1.6 | 0.00 | 0.00 | 0.00 | 6550.2 | |
| 20260508005844 | -2 | 135 | 0.0 | 0.0 | 0.00 | 0.00 | 0.00 | 6550.2 | |
| 20260508005721 | -2 | 135 | 0.0 | 1.6 | 0.00 | 0.00 | 0.00 | 6550.2 | |
| 20260508005640 | -2 | 135 | 0.0 | 1.6 | 0.00 | 0.00 | 0.00 | 6550.2 | |
| 20260508005436 | -2 | 135 | 0.0 | 1.6 | 0.00 | 0.00 | 0.00 | 6550.2 | |
| 20260508005232 | -2 | 180 | 1.6 | 1.6 | 0.00 | 0.00 | 0.00 | 6550.2 | |
| 20260508005113 | -2 | 130 | 0.0 | 0.0 | 0.00 | 0.00 | 0.00 | 6550.2 | |
| 20260508005028 | -2 | 130 | 0.0 | 0.0 | 0.00 | 0.00 | 0.00 | 6550.2 | |
| 20260508005009 | -2 | 180 | 0.0 | 3.2 | 0.00 | 0.00 | 0.00 | 6550.2 | |
| 20260508004837 | -2 | 90 | 0.0 | 3.2 | 0.00 | 0.00 | 0.00 | 6550.2 | |
| 20260508004805 | -2 | 90 | 0.0 | 3.2 | 0.00 | 0.00 | 0.00 | 6550.2 | |
| 20260508004601 | -2 | 89 | 1.6 | 3.2 | 0.00 | 0.00 | 0.00 | 6550.2 | |
| 20260508004358 | -2 | 117 | 0.0 | 3.2 | 0.00 | 0.00 | 0.00 | 6550.2 | |
| 20260508004153 | -2 | 134 | 1.6 | 1.6 | 0.00 | 0.00 | 0.00 | 6550.2 | |
| 20260508003950 | -2 | 120 | 1.6 | 1.6 | 0.00 | 0.00 | 0.00 | 6550.2 | |
| 20260508003745 | -2 | 135 | 0.0 | 3.2 | 0.00 | 0.00 | 0.00 | 6550.2 | |
| 20260508003542 | -2 | 135 | 0.0 | 4.8 | 0.00 | 0.00 | 0.00 | 6550.2 | |
| 20260508003337 | -2 | 90 | 0.0 | 4.8 | 0.00 | 0.00 | 0.00 | 6550.2 | |
| 20260508003134 | -2 | 90 | 3.2 | 4.8 | 0.00 | 0.00 | 0.00 | 6550.2 | |
| 20260508002929 | -2 | 90 | 1.6 | 3.2 | 0.00 | 0.00 | 0.00 | 6550.2 | |
| 20260508002726 | -2 | 89 | 0.0 | 3.2 | 0.00 | 0.00 | 0.00 | 6550.2 | |
| 20260508002521 | -2 | 174 | 0.0 | 1.6 | 0.00 | 0.00 | 0.00 | 6550.2 | |
| 20260508002404 | -2 | 90 | 0.0 | 1.6 | 0.00 | 0.00 | 0.00 | 6550.2 | |
| 20260508002318 | -2 | 90 | 0.0 | 1.6 | 0.00 | 0.00 | 0.00 | 6550.2 | |
| 20260508002113 | -2 | 135 | 0.0 | 1.6 | 0.00 | 0.00 | 0.00 | 6550.2 | |
| 20260508001910 | -2 | 90 | 0.0 | 3.2 | 0.00 | 0.00 | 0.00 | 6550.2 | |
| 20260508001502 | -2 | 95 | 3.2 | 3.2 | 0.00 | 0.00 | 0.00 | 6550.2 | |
| 20260508001257 | -2 | 90 | 1.6 | 3.2 | 0.00 | 0.00 | 0.00 | 6550.2 | |
| 20260508001145 | -2 | 113 | 1.6 | 3.2 | 0.00 | 0.00 | 0.00 | 6550.2 | |
| 20260508001054 | -2 | 113 | 1.6 | 3.2 | 0.00 | 0.00 | 0.00 | 6550.2 | |
| 20260508000850 | -2 | 135 | 0.0 | 1.6 | 0.00 | 0.00 | 0.00 | 6550.2 | |
| 20260508000646 | -2 | 135 | 0.0 | 1.6 | 0.00 | 0.00 | 0.00 | 6550.2 | |
| 20260508000442 | -2 | 130 | 0.0 | 1.6 | 0.00 | 0.00 | 0.00 | 6550.2 | |
| 20260508000321 | -2 | 89 | 1.6 | 1.6 | 0.00 | 0.00 | 0.00 | 6550.2 | |
| 20260508000238 | -2 | 89 | 1.6 | 1.6 | 0.00 | 0.00 | 0.00 | 6550.2 | |
| 20260508000046 | -2 | 90 | 1.6 | 1.6 | 0.00 | 0.00 | 0.00 | 6550.2 | |
| 20260507235830 | -2 | 180 | 0.0 | 1.6 | 0.00 | 0.00 | 0.00 | 6550.2 | |
| 20260507235626 | -2 | 90 | 0.0 | 1.6 | 0.00 | 0.00 | 0.00 | 6550.2 | |
| 20260507235422 | -2 | 92 | 1.6 | 1.6 | 0.00 | 0.00 | 0.00 | 6550.2 | |
| 20260507235218 | -2 | 45 | 0.0 | 1.6 | 0.00 | 0.00 | 0.00 | 6550.2 | |
| 20260507234810 | -2 | 167 | 1.6 | 1.6 | 0.00 | 0.00 | 0.00 | 6550.2 | |
| 20260507234606 | -2 | 90 | 0.0 | 1.6 | 0.00 | 0.00 | 0.00 | 6550.2 | |
| 20260507234158 | -2 | 135 | 0.0 | 3.2 | 0.00 | 0.00 | 0.00 | 6550.2 | |
| 20260507233954 | -2 | 126 | 0.0 | 3.2 | 0.00 | 0.00 | 0.00 | 6550.2 | |
| 20260507233750 | -2 | 163 | 0.0 | 3.2 | 0.00 | 0.00 | 0.00 | 6550.2 | |
| 20260507233617 | -2 | 139 | 1.6 | 3.2 | 0.00 | 0.00 | 0.00 | 6550.2 | |
| 20260507233546 | -2 | 139 | 1.6 | 3.2 | 0.00 | 0.00 | 0.00 | 6550.2 | |
| 20260507233342 | -2 | 144 | 1.6 | 1.6 | 0.00 | 0.00 | 0.00 | 6550.2 | |
| 20260507233138 | -2 | 135 | 0.0 | 0.0 | 0.00 | 0.00 | 0.00 | 6550.2 | |
| 20260507232934 | -2 | 135 | 0.0 | 1.6 | 0.00 | 0.00 | 0.00 | 6550.2 | |
| 20260507232730 | -2 | 90 | 0.0 | 3.2 | 0.00 | 0.00 | 0.00 | 6550.2 | |
| 20260507232612 | -2 | 89 | 1.6 | 3.2 | 0.00 | 0.00 | 0.00 | 6550.2 | |
| 20260507232526 | -2 | 89 | 1.6 | 3.2 | 0.00 | 0.00 | 0.00 | 6550.2 | |
| 20260507232322 | -2 | 135 | 0.0 | 3.2 | 0.00 | 0.00 | 0.00 | 6550.2 | |
| 20260507232118 | -2 | 220 | 0.0 | 1.6 | 0.00 | 0.00 | 0.00 | 6550.2 | |
| 20260507231914 | -2 | 180 | 0.0 | 1.6 | 0.00 | 0.00 | 0.00 | 6550.2 | |
| 20260507231710 | -2 | 180 | 0.0 | 1.6 | 0.00 | 0.00 | 0.00 | 6550.2 | |
| 20260507231302 | -2 | 180 | 0.0 | 1.6 | 0.00 | 0.00 | 0.00 | 6550.2 | |
| 20260507230854 | -2 | 135 | 0.0 | 1.6 | 0.00 | 0.00 | 0.00 | 6550.2 | |
| 20260507230723 | -2 | 184 | 0.0 | 1.6 | 0.00 | 0.00 | 0.00 | 6550.2 | |
| 20260507230650 | -2 | 184 | 0.0 | 1.6 | 0.00 | 0.00 | 0.00 | 6550.2 | |
| 20260507230446 | -2 | 225 | 0.0 | 1.6 | 0.00 | 0.00 | 0.00 | 6550.2 | |
| 20260507230242 | -2 | 180 | 1.6 | 1.6 | 0.00 | 0.00 | 0.00 | 6550.2 | |
| 20260507230038 | -2 | 180 | 1.6 | 3.2 | 0.00 | 0.00 | 0.00 | 6550.2 | |
| 20260507225834 | -2 | 180 | 1.6 | 4.8 | 0.00 | 0.00 | 0.00 | 6550.2 | |
| 20260507225630 | -2 | 171 | 1.6 | 4.8 | 0.00 | 0.00 | 0.00 | 6550.2 | |
| 20260507225426 | -2 | 220 | 1.6 | 4.8 | 0.00 | 0.00 | 0.00 | 6550.2 | |
| 20260507225222 | -2 | 204 | 1.6 | 4.8 | 0.00 | 0.00 | 0.00 | 6550.2 | |
| 20260507225018 | -2 | 218 | 1.6 | 4.8 | 0.00 | 0.00 | 0.00 | 6550.2 | |
| 20260507224814 | -2 | 202 | 3.2 | 3.2 | 0.00 | 0.00 | 0.00 | 6550.2 | |
| 20260507224646 | -2 | 193 | 1.6 | 3.2 | 0.00 | 0.00 | 0.00 | 6550.2 | |
| 20260507224610 | -2 | 193 | 1.6 | 3.2 | 0.00 | 0.00 | 0.00 | 6550.2 | |
| 20260507224406 | -2 | 211 | 1.6 | 3.2 | 0.00 | 0.00 | 0.00 | 6550.2 | |
| 20260507224202 | -2 | 270 | 1.6 | 3.2 | 0.00 | 0.00 | 0.00 | 6550.2 | |
| 20260507224046 | -2 | 247 | 0.0 | 3.2 | 0.00 | 0.00 | 0.00 | 6550.2 | |
| 20260507223958 | -2 | 247 | 0.0 | 3.2 | 0.00 | 0.00 | 0.00 | 6550.2 | |
| 20260507223754 | -2 | 265 | 3.2 | 3.2 | 0.00 | 0.00 | 0.00 | 6550.2 | |
| 20260507223550 | -2 | 270 | 0.0 | 1.6 | 0.00 | 0.00 | 0.00 | 6550.2 | |
| 20260507223346 | -2 | 180 | 0.0 | 0.0 | 0.00 | 0.00 | 0.00 | 6550.2 | |
| 20260507223143 | -2 | 112 | 0.0 | 0.0 | 0.00 | 0.00 | 0.00 | 6550.2 | |
| 20260507223022 | -2 | 231 | 0.0 | 4.8 | 0.00 | 0.00 | 0.00 | 6550.2 | |
| 20260507222818 | -2 | 315 | 0.0 | 4.8 | 0.00 | 0.00 | 0.00 | 6550.2 | |
| 20260507222614 | -2 | 311 | 3.2 | 4.8 | 0.00 | 0.00 | 0.00 | 6550.2 | |
| 20260507222410 | -2 | 315 | 3.2 | 3.2 | 0.00 | 0.00 | 0.00 | 6550.2 | |
| 20260507222206 | -2 | 307 | 1.6 | 3.2 | 0.00 | 0.00 | 0.00 | 6550.2 | |
| 20260507222002 | -2 | 298 | 1.6 | 6.4 | 0.00 | 0.00 | 0.00 | 6550.2 | |
| 20260507221758 | -2 | 266 | 1.6 | 6.4 | 0.00 | 0.00 | 0.00 | 6550.2 | |
| 20260507221554 | -2 | 238 | 1.6 | 6.4 | 0.00 | 0.00 | 0.00 | 6550.2 | |
| 20260507221350 | -2 | 225 | 1.6 | 6.4 | 0.00 | 0.00 | 0.00 | 6550.2 | |
| 20260507221146 | -2 | 229 | 1.6 | 8.0 | 0.00 | 0.00 | 0.03 | 6550.2 | |
| 20260507220942 | -2 | 254 | 1.6 | 8.0 | 0.00 | 0.00 | 0.03 | 6550.2 | |
| 20260507220738 | -2 | 260 | 6.4 | 8.0 | 0.00 | 0.00 | 0.03 | 6550.2 | |
| 20260507220534 | -2 | 209 | 1.6 | 4.8 | 0.00 | 0.00 | 0.03 | 6550.2 | |
| 20260507220330 | -2 | 265 | 3.2 | 4.8 | 0.00 | 0.00 | 0.03 | 6550.2 | |
| 20260507220126 | -2 | 270 | 1.6 | 3.2 | 0.00 | 0.00 | 0.03 | 6550.2 | |
| 20260507215922 | -2 | 225 | 0.0 | 3.2 | 0.00 | 0.00 | 0.03 | 6550.2 | |
| 20260507215718 | -2 | 270 | 1.6 | 6.4 | 0.00 | 0.00 | 0.03 | 6550.2 | |
| 20260507215514 | -2 | 273 | 1.6 | 6.4 | 0.00 | 0.00 | 0.03 | 6550.2 | |
| 20260507215310 | -2 | 273 | 4.8 | 6.4 | 0.00 | 0.00 | 0.03 | 6550.2 | |
| 20260507215106 | -2 | 309 | 4.8 | 11.3 | 0.00 | 0.00 | 0.03 | 6550.2 | |
| 20260507214902 | -2 | 305 | 6.4 | 11.3 | 0.00 | 0.00 | 0.03 | 6550.2 | |
| 20260507214658 | -2 | 310 | 1.6 | 4.8 | 0.00 | 0.00 | 0.03 | 6550.2 | |
| 20260507214454 | -2 | 260 | 1.6 | 4.8 | 0.00 | 0.00 | 0.03 | 6550.2 | |
| 20260507214250 | -2 | 315 | 1.6 | 4.8 | 0.00 | 0.00 | 0.03 | 6550.2 | |
| 20260507214046 | -2 | 216 | 3.2 | 4.8 | 0.00 | 0.00 | 0.03 | 6550.2 | |
| 20260507213842 | -2 | 242 | 1.6 | 4.8 | 0.00 | 0.00 | 0.03 | 6550.2 | |
| 20260507213638 | -2 | 233 | 1.6 | 4.8 | 0.00 | 0.00 | 0.03 | 6550.2 | |
| 20260507213434 | -2 | 243 | 1.6 | 4.8 | 0.00 | 0.00 | 0.03 | 6550.2 | |
| 20260507213230 | -2 | 77 | 3.2 | 4.8 | 0.00 | 0.00 | 0.03 | 6550.2 | |
| 20260507213026 | -2 | 274 | 0.0 | 4.8 | 0.00 | 0.00 | 0.03 | 6550.2 | |
| 20260507212822 | -2 | 230 | 1.6 | 4.8 | 0.00 | 0.00 | 0.00 | 6550.2 | |
| 20260507212618 | -2 | 213 | 6.4 | 6.4 | 0.00 | 0.00 | 0.00 | 6550.2 | |
| 20260507212414 | -2 | 229 | 1.6 | 3.2 | 0.00 | 0.00 | 0.00 | 6550.2 | |
| 20260507212258 | -2 | 216 | 1.6 | 4.8 | 0.00 | 0.00 | 0.00 | 6550.2 | |
| 20260507212210 | -2 | 216 | 1.6 | 4.8 | 0.00 | 0.00 | 0.00 | 6550.2 | |
| 20260507212006 | -2 | 225 | 0.0 | 4.8 | 0.00 | 0.00 | 0.00 | 6550.2 | |
| 20260507211802 | -2 | 225 | 1.6 | 1.6 | 0.00 | 0.00 | 0.00 | 6550.2 | |
| 20260507211558 | -2 | 170 | 1.6 | 4.8 | 0.00 | 0.00 | 0.00 | 6550.2 | |
| 20260507211354 | -2 | 225 | 0.0 | 6.4 | 0.00 | 0.00 | 0.00 | 6550.2 | |
| 20260507211150 | -2 | 228 | 1.6 | 6.4 | 0.00 | 0.00 | 0.00 | 6550.2 | |
| 20260507210946 | -2 | 212 | 3.2 | 6.4 | 0.00 | 0.00 | 0.00 | 6550.2 | |
| 20260507210742 | -2 | 232 | 1.6 | 6.4 | 0.00 | 0.00 | 0.00 | 6550.2 | |
| 20260507210538 | -2 | 273 | 1.6 | 6.4 | 0.00 | 0.00 | 0.00 | 6550.2 | |
| 20260507210334 | -2 | 256 | 1.6 | 4.8 | 0.00 | 0.00 | 0.00 | 6550.2 | |
| 20260507210130 | -2 | 149 | 1.6 | 6.4 | 0.00 | 0.00 | 0.00 | 6550.2 | |
| 20260507205926 | -2 | 315 | 1.6 | 6.4 | 0.00 | 0.00 | 0.00 | 6550.2 | |
| 20260507205754 | -2 | 315 | 1.6 | 9.7 | 0.00 | 0.00 | 0.00 | 6550.2 | |
| 20260507205722 | -2 | 315 | 1.6 | 9.7 | 0.00 | 0.00 | 0.00 | 6550.2 | |
| 20260507205518 | -2 | 309 | 1.6 | 9.7 | 0.00 | 0.00 | 0.00 | 6550.2 | |
| 20260507205314 | -2 | 296 | 6.4 | 6.4 | 0.00 | 0.00 | 0.00 | 6550.2 | |
| 20260507205153 | -2 | 225 | 1.6 | 6.4 | 0.00 | 0.00 | 0.00 | 6550.2 | |
| 20260507205110 | -2 | 225 | 1.6 | 6.4 | 0.00 | 0.00 | 0.00 | 6550.2 | |
| 20260507204907 | -2 | 282 | 4.8 | 6.4 | 0.00 | 0.00 | 0.00 | 6550.2 | |
| 20260507204702 | -2 | 270 | 1.6 | 4.8 | 0.00 | 0.00 | 0.00 | 6550.2 | |
| 20260507204549 | -2 | 183 | 0.0 | 4.8 | 0.00 | 0.00 | 0.00 | 6550.2 | |
| 20260507204458 | -2 | 183 | 0.0 | 4.8 | 0.00 | 0.00 | 0.00 | 6550.2 | |
| 20260507204254 | -2 | 325 | 4.8 | 4.8 | 0.00 | 0.00 | 0.00 | 6550.2 | |
| 20260507204112 | -2 | 1 | 1.6 | 8.0 | 0.00 | 0.00 | 0.08 | 6550.2 | |
| 20260507204051 | -2 | 112 | 0.0 | 0.0 | 0.00 | 0.00 | 0.00 | 6550.2 | |
| 20260507204022 | -2 | 1 | 1.6 | 8.0 | 0.00 | 0.00 | 0.08 | 6550.2 | |
| 20260507203819 | -2 | 246 | 1.6 | 8.0 | 0.00 | 0.00 | 0.08 | 6550.2 | |
| 20260507203614 | -2 | 347 | 6.4 | 6.4 | 0.00 | 0.00 | 0.08 | 6550.2 | |
| 20260507203411 | -2 | 90 | 0.0 | 6.4 | 0.00 | 0.00 | 0.08 | 6550.2 | |
| 20260507203206 | -2 | 314 | 0.0 | 6.4 | 0.00 | 0.00 | 0.08 | 6550.2 | |
| 20260507203003 | -2 | 336 | 4.8 | 6.4 | 0.00 | 0.00 | 0.08 | 6550.2 | |
| 20260507202759 | -2 | 83 | 3.2 | 6.4 | 0.00 | 0.00 | 0.08 | 6550.2 | |
| 20260507202555 | -2 | 16 | 3.2 | 6.4 | 0.00 | 0.00 | 0.08 | 6550.2 | |
| 20260507202350 | -2 | 315 | 4.8 | 6.4 | 0.00 | 0.00 | 0.08 | 6550.2 | |
| 20260507202147 | -2 | 315 | 1.6 | 12.9 | 0.00 | 0.00 | 0.08 | 6550.2 | |
| 20260507201943 | -2 | 286 | 1.6 | 12.9 | 0.00 | 0.00 | 0.08 | 6550.2 | |
| 20260507201739 | -2 | 318 | 4.8 | 12.9 | 0.00 | 0.00 | 0.08 | 6550.2 | |
| 20260507201535 | -2 | 321 | 3.2 | 9.7 | 0.00 | 0.00 | 0.08 | 6550.2 | |
| 20260507201331 | -2 | 327 | 6.4 | 8.0 | 0.00 | 0.00 | 0.08 | 6550.2 | |
| 20260507201127 | -2 | 330 | 1.6 | 3.2 | 0.00 | 0.00 | 0.08 | 6550.2 | |
| 20260507201047 | -2 | 315 | 1.6 | 6.4 | 0.00 | 0.00 | 0.08 | 6550.2 | |
| 20260507200923 | -2 | 315 | 1.6 | 6.4 | 0.00 | 0.00 | 0.08 | 6550.2 | |
| 20260507200719 | -2 | 328 | 1.6 | 8.0 | 0.00 | 0.00 | 0.08 | 6550.2 | |
| 20260507200551 | -2 | 312 | 3.2 | 8.0 | 0.00 | 0.00 | 0.08 | 6550.2 | |
| 20260507200515 | -2 | 312 | 3.2 | 8.0 | 0.00 | 0.00 | 0.08 | 6550.2 | |
| 20260507200311 | -2 | 327 | 8.0 | 8.0 | 0.00 | 0.00 | 0.08 | 6550.2 | |
| 20260507200107 | -2 | 313 | 3.2 | 6.4 | 0.00 | 0.00 | 0.08 | 6550.2 | |
| 20260507195903 | -2 | 322 | 1.6 | 4.8 | 0.00 | 0.00 | 0.08 | 6550.2 | |
| 20260507195659 | -2 | 320 | 3.2 | 6.4 | 0.00 | 0.00 | 0.08 | 6550.2 | |
| 20260507195528 | -2 | 352 | 3.2 | 8.0 | 0.00 | 0.00 | 0.08 | 6550.2 | |
| 20260507195455 | -2 | 352 | 3.2 | 8.0 | 0.00 | 0.00 | 0.08 | 6550.2 | |
| 20260507195251 | -2 | 323 | 3.2 | 8.0 | 0.00 | 0.00 | 0.08 | 6550.2 | |
| 20260507195134 | -2 | 311 | 6.4 | 6.4 | 0.00 | 0.00 | 0.08 | 6550.2 | |
| 20260507195047 | -2 | 311 | 6.4 | 6.4 | 0.00 | 0.00 | 0.08 | 6550.2 | |
| 20260507194843 | -2 | 304 | 3.2 | 4.8 | 0.00 | 0.00 | 0.08 | 6550.2 | |
| 20260507194639 | -2 | 314 | 1.6 | 9.7 | 0.00 | 0.00 | 0.08 | 6550.2 | |
| 20260507194231 | -2 | 326 | 6.4 | 8.0 | 0.00 | 0.00 | 0.08 | 6550.2 | |
| 20260507194027 | -2 | 318 | 3.2 | 8.0 | 0.00 | 0.00 | 0.08 | 6550.2 | |
| 20260507193850 | -2 | 290 | 6.4 | 9.7 | 0.00 | 0.00 | 0.08 | 6550.2 | |
| 20260507193654 | -2 | 316 | 4.8 | 9.7 | 0.00 | 0.00 | 0.08 | 6550.2 | |
| 20260507193619 | -2 | 316 | 4.8 | 9.7 | 0.00 | 0.00 | 0.08 | 6550.2 | |
| 20260507193415 | -2 | 292 | 4.8 | 9.7 | 0.00 | 0.00 | 0.08 | 6550.2 | |
| 20260507193243 | -2 | 327 | 3.2 | 6.4 | 0.00 | 0.00 | 0.08 | 6550.2 | |
| 20260507193211 | -2 | 327 | 3.2 | 6.4 | 0.00 | 0.00 | 0.08 | 6550.2 | |
| 20260507192803 | -2 | 299 | 4.8 | 11.3 | 0.00 | 0.00 | 0.08 | 6550.2 | |
| 20260507192355 | -2 | 315 | 3.2 | 14.5 | 0.00 | 0.00 | 0.08 | 6550.2 | |
| 20260507192151 | -2 | 331 | 3.2 | 14.5 | 0.00 | 0.00 | 0.08 | 6550.2 | |
| 20260507191947 | -2 | 305 | 3.2 | 8.0 | 0.00 | 0.00 | 0.08 | 6550.2 | |
| 20260507191743 | -2 | 293 | 6.4 | 9.7 | 0.00 | 0.00 | 0.08 | 6550.2 | |
| 20260507191539 | -2 | 276 | 4.8 | 9.7 | 0.00 | 0.00 | 0.08 | 6550.2 | |
| 20260507191335 | -2 | 316 | 9.7 | 12.9 | 0.00 | 0.00 | 0.08 | 6550.2 | |
| 20260507191206 | -2 | 324 | 8.0 | 12.9 | 0.00 | 0.00 | 0.08 | 6550.2 | |
| 20260507191131 | -2 | 324 | 8.0 | 12.9 | 0.00 | 0.00 | 0.08 | 6550.2 | |
| 20260507190927 | -2 | 304 | 11.3 | 12.9 | 0.00 | 0.00 | 0.08 | 6550.2 | |
| 20260507190723 | -2 | 313 | 0.0 | 12.9 | 0.00 | 0.00 | 0.08 | 6550.2 | |
| 20260507190519 | -2 | 283 | 6.4 | 12.9 | 0.00 | 0.00 | 0.08 | 6550.2 | |
| 20260507190315 | -2 | 293 | 14.5 | 14.5 | 0.00 | 0.00 | 0.08 | 6550.2 | |
| 20260507190111 | -2 | 295 | 6.4 | 11.3 | 0.00 | 0.00 | 0.08 | 6550.2 | |
| 20260507185907 | -2 | 308 | 11.3 | 11.3 | 0.00 | 0.00 | 0.08 | 6550.2 | |
| 20260507185703 | -2 | 311 | 8.0 | 11.3 | 0.00 | 0.00 | 0.08 | 6550.2 | |
| 20260507185459 | -2 | 277 | 4.8 | 11.3 | 0.00 | 0.00 | 0.08 | 6550.2 | |
| 20260507185123 | -2 | 278 | 6.4 | 9.7 | 0.00 | 0.00 | 0.08 | 6550.2 | |
| 20260507185051 | -2 | 278 | 6.4 | 9.7 | 0.00 | 0.00 | 0.08 | 6550.2 | |
| 20260507184847 | -2 | 276 | 4.8 | 9.7 | 0.00 | 0.00 | 0.08 | 6550.2 | |
| 20260507184643 | -2 | 301 | 3.2 | 12.9 | 0.00 | 0.00 | 0.08 | 6550.2 | |
| 20260507184439 | -2 | 277 | 6.4 | 12.9 | 0.00 | 0.00 | 0.08 | 6550.2 | |
| 20260507184235 | -2 | 259 | 6.4 | 12.9 | 0.00 | 0.00 | 0.08 | 6550.2 | |
| 20260507184031 | -2 | 265 | 6.4 | 11.3 | 0.00 | 0.00 | 0.08 | 6550.2 | |
| 20260507183827 | -2 | 271 | 9.7 | 9.7 | 0.00 | 0.00 | 0.08 | 6550.2 | |
| 20260507183623 | -2 | 266 | 6.4 | 9.7 | 0.00 | 0.00 | 0.08 | 6550.2 | |
| 20260507183419 | -2 | 272 | 4.8 | 9.7 | 0.00 | 0.00 | 0.08 | 6550.2 | |
| 20260507183215 | -2 | 281 | 6.4 | 11.3 | 0.00 | 0.00 | 0.08 | 6550.2 | |
| 20260507183011 | -2 | 278 | 4.8 | 12.9 | 0.00 | 0.00 | 0.08 | 6550.2 | |
| 20260507182807 | -2 | 267 | 1.6 | 12.9 | 0.00 | 0.00 | 0.05 | 6550.2 | |
| 20260507182603 | -2 | 259 | 9.7 | 12.9 | 0.00 | 0.00 | 0.05 | 6550.2 | |
| 20260507182359 | -2 | 269 | 6.4 | 16.1 | 0.00 | 0.00 | 0.05 | 6550.2 | |
| 20260507182156 | -2 | 279 | 6.4 | 16.1 | 0.00 | 0.00 | 0.05 | 6550.2 | |
| 20260507181748 | -2 | 286 | 8.0 | 17.7 | 0.00 | 0.00 | 0.05 | 6550.2 | |
| 20260507181543 | -2 | 258 | 9.7 | 17.7 | 0.00 | 0.00 | 0.05 | 6550.2 | |
| 20260507181340 | -2 | 280 | 9.7 | 17.7 | 0.00 | 0.00 | 0.05 | 6550.2 | |
| 20260507180932 | -2 | 276 | 6.4 | 11.3 | 0.00 | 0.00 | 0.05 | 6550.2 | |
| 20260507180727 | -2 | 300 | 4.8 | 12.9 | 0.00 | 0.00 | 0.05 | 6550.2 | |
| 20260507180524 | -2 | 298 | 9.7 | 12.9 | 0.00 | 0.00 | 0.05 | 6550.2 | |
| 20260507180319 | -2 | 267 | 1.6 | 12.9 | 0.00 | 0.00 | 0.05 | 6550.2 | |
| 20260507180116 | -2 | 277 | 6.4 | 12.9 | 0.00 | 0.00 | 0.05 | 6550.2 | |
| 20260507180017 | -2 | 295 | 6.4 | 12.9 | 0.00 | 0.00 | 0.05 | 6550.2 | |
| 20260507175911 | -2 | 295 | 6.4 | 12.9 | 0.00 | 0.00 | 0.05 | 6550.2 | |
| 20260507175708 | -2 | 313 | 6.4 | 11.3 | 0.00 | 0.00 | 0.05 | 6550.2 | |
| 20260507175300 | -2 | 261 | 3.2 | 6.4 | 0.00 | 0.00 | 0.05 | 6550.2 | |
| 20260507175055 | -2 | 297 | 4.8 | 12.9 | 0.00 | 0.00 | 0.05 | 6550.2 | |
| 20260507174852 | -2 | 268 | 4.8 | 12.9 | 0.00 | 0.00 | 0.05 | 6550.2 | |
| 20260507174444 | -2 | 283 | 11.3 | 11.3 | 0.00 | 0.00 | 0.05 | 6550.2 | |
| 20260507174240 | -2 | 290 | 11.3 | 11.3 | 0.00 | 0.00 | 0.05 | 6550.2 | |
| 20260507174036 | -2 | 315 | 9.7 | 12.9 | 0.00 | 0.00 | 0.05 | 6550.2 | |
| 20260507173832 | -2 | 307 | 11.3 | 12.9 | 0.00 | 0.00 | 0.05 | 6550.2 | |
| 20260507173628 | -2 | 296 | 11.3 | 12.9 | 0.00 | 0.00 | 0.05 | 6550.2 | |
| 20260507173424 | -2 | 265 | 3.2 | 9.7 | 0.00 | 0.00 | 0.05 | 6550.2 | |
| 20260507173308 | -2 | 317 | 3.2 | 14.5 | 0.00 | 0.00 | 0.05 | 6550.2 | |
| 20260507173220 | -2 | 317 | 3.2 | 14.5 | 0.00 | 0.00 | 0.05 | 6550.2 | |
| 20260507173016 | -2 | 284 | 6.4 | 14.5 | 0.00 | 0.00 | 0.05 | 6550.2 | |
| 20260507172812 | -2 | 288 | 11.3 | 14.5 | 0.00 | 0.00 | 0.05 | 6550.2 | |
| 20260507172608 | -2 | 298 | 8.0 | 12.9 | 0.00 | 0.00 | 0.05 | 6550.2 | |
| 20260507172404 | -2 | 288 | 8.0 | 17.7 | 0.00 | 0.00 | 0.03 | 6550.2 | |
| 20260507172200 | -2 | 294 | 8.0 | 17.7 | 0.00 | 0.00 | 0.03 | 6550.2 | |
| 20260507171956 | -2 | 320 | 8.0 | 19.3 | 0.00 | 0.00 | 0.03 | 6550.2 | |
| 20260507171752 | -2 | 340 | 12.9 | 19.3 | 0.00 | 0.00 | 0.03 | 6550.2 | |
| 20260507171548 | -2 | 277 | 6.4 | 19.3 | 0.00 | 0.00 | 0.03 | 6550.2 | |
| 20260507171441 | -2 | 298 | 8.0 | 19.3 | 0.00 | 0.00 | 0.03 | 6550.2 | |
| 20260507171344 | -2 | 298 | 8.0 | 19.3 | 0.00 | 0.00 | 0.03 | 6550.2 | |
| 20260507171140 | -2 | 318 | 8.0 | 19.3 | 0.00 | 0.00 | 0.03 | 6550.2 | |
| 20260507170936 | -2 | 296 | 4.8 | 12.9 | 0.00 | 0.00 | 0.03 | 6550.2 | |
| 20260507170833 | -2 | 285 | 8.0 | 11.3 | 0.00 | 0.00 | 0.03 | 6550.2 | |
| 20260507170732 | -2 | 285 | 8.0 | 11.3 | 0.00 | 0.00 | 0.03 | 6550.2 | |
| 20260507170528 | -2 | 301 | 9.7 | 11.3 | 0.00 | 0.00 | 0.03 | 6550.2 | |
| 20260507170324 | -2 | 295 | 8.0 | 8.0 | 0.00 | 0.00 | 0.03 | 6550.2 | |
| 20260507170120 | -2 | 311 | 1.6 | 12.9 | 0.00 | 0.00 | 0.03 | 6550.2 | |
| 20260507165916 | -2 | 303 | 4.8 | 12.9 | 0.00 | 0.00 | 0.03 | 6550.2 | |
| 20260507165712 | -2 | 297 | 11.3 | 12.9 | 0.00 | 0.00 | 0.03 | 6550.2 | |
| 20260507165508 | -2 | 270 | 8.0 | 14.5 | 0.00 | 0.00 | 0.03 | 6550.2 | |
| 20260507165306 | -2 | 306 | 4.8 | 14.5 | 0.00 | 0.00 | 0.03 | 6550.2 | |
| 20260507165100 | -2 | 285 | 14.5 | 14.5 | 0.00 | 0.00 | 0.03 | 6550.2 | |
| 20260507163020 | -2 | 314 | 6.4 | 22.5 | 0.00 | 0.00 | 0.03 | 6550.2 | |
| 20260507162408 | -2 | 281 | 6.4 | 11.3 | 0.00 | 0.00 | 0.03 | 6550.2 | |
| 20260507160736 | -2 | 302 | 11.3 | 12.9 | 0.00 | 0.00 | 0.00 | 6550.2 | |
| 20260507153844 | -2 | 232 | 8.0 | 8.0 | 0.00 | 0.00 | 0.00 | 6550.2 | |
| 20260507153640 | -2 | 274 | 4.8 | 9.7 | 0.00 | 0.00 | 0.00 | 6550.2 | |
| 20260507153232 | -2 | 284 | 6.4 | 9.7 | 0.00 | 0.00 | 0.00 | 6550.2 | |
| 20260507152416 | -2 | 230 | 6.4 | 14.5 | 0.00 | 0.00 | 0.00 | 6550.2 | |
| 20260507152008 | -2 | 272 | 6.4 | 17.7 | 0.00 | 0.00 | 0.00 | 6550.2 | |
| 20260507151356 | -2 | 219 | 6.4 | 6.4 | 0.00 | 0.00 | 0.00 | 6550.2 | |
| 20260507150801 | -2 | 221 | 0.0 | 11.3 | 0.00 | 0.00 | 0.00 | 6550.2 | |
| 20260507150336 | -2 | 209 | 4.8 | 14.5 | 0.00 | 0.00 | 0.00 | 6550.2 | |
| 20260507150132 | -2 | 139 | 4.8 | 14.5 | 0.00 | 0.00 | 0.00 | 6550.2 | |
| 20260507145928 | -2 | 225 | 9.7 | 14.5 | 0.00 | 0.00 | 0.00 | 6550.2 | |
| 20260507145724 | -2 | 225 | 4.8 | 9.7 | 0.00 | 0.00 | 0.00 | 6550.2 | |
| 20260507145520 | -2 | 225 | 4.8 | 9.7 | 0.00 | 0.00 | 0.00 | 6550.2 | |
| 20260507145112 | -2 | 228 | 8.0 | 11.3 | 0.00 | 0.00 | 0.00 | 6550.2 | |
| 20260507144908 | -2 | 230 | 6.4 | 6.4 | 0.00 | 0.00 | 0.00 | 6550.2 | |
| 20260507144704 | -2 | 119 | 1.6 | 9.7 | 0.00 | 0.00 | 0.00 | 6550.2 | |
| 20260507142625 | -2 | 108 | 0.0 | 0.0 | 0.00 | 0.00 | 0.00 | 6550.2 | |
| 20260507142413 | -2 | 227 | 0.0 | 14.5 | 0.00 | 0.00 | 0.03 | 6550.2 | |
| 20260507134905 | -2 | 211 | 6.4 | 8.0 | 0.00 | 0.00 | 0.03 | 6550.2 | |
| 20260507134253 | -2 | 270 | 4.8 | 11.3 | 0.00 | 0.00 | 0.03 | 6550.2 | |
| 20260507133845 | -2 | 180 | 4.8 | 14.5 | 0.00 | 0.00 | 0.03 | 6550.2 | |
| 20260507133641 | -2 | 238 | 6.4 | 14.5 | 0.00 | 0.00 | 0.03 | 6550.2 | |
| 20260507133437 | -2 | 268 | 3.2 | 9.7 | 0.00 | 0.00 | 0.03 | 6550.2 | |
| 20260507133233 | -2 | 342 | 1.6 | 9.7 | 0.00 | 0.00 | 0.03 | 6550.2 | |
| 20260507131602 | -2 | 228 | 9.7 | 9.7 | 0.00 | 0.00 | 0.00 | 6550.2 | |
| 20260507131357 | -2 | 270 | 4.8 | 8.0 | 0.00 | 0.00 | 0.00 | 6550.2 | |
| 20260507130650 | -2 | 221 | 3.2 | 11.3 | 0.00 | 0.00 | 0.03 | 6550.2 | |
| 20260507130446 | -2 | 166 | 9.7 | 9.7 | 0.00 | 0.00 | 0.03 | 6550.2 | |
| 20260507130038 | -2 | 243 | 8.0 | 8.0 | 0.00 | 0.00 | 0.03 | 6550.2 | |
| 20260507125834 | -2 | 232 | 1.6 | 9.7 | 0.00 | 0.00 | 0.03 | 6550.2 | |
| 20260507125630 | -2 | 320 | 1.6 | 9.7 | 0.00 | 0.00 | 0.03 | 6550.2 | |
| 20260507125426 | -2 | 226 | 6.4 | 9.7 | 0.00 | 0.00 | 0.03 | 6550.2 | |
| 20260507124610 | -2 | 237 | 6.4 | 14.5 | 0.00 | 0.00 | 0.03 | 6550.2 | |
| 20260507123958 | -2 | 189 | 3.2 | 6.4 | 0.00 | 0.00 | 0.03 | 6550.2 | |
| 20260507122326 | -2 | 195 | 1.6 | 9.7 | 0.00 | 0.00 | 0.03 | 6550.2 | |
| 20260507122122 | -2 | 199 | 4.8 | 9.7 | 0.00 | 0.00 | 0.03 | 6550.2 | |
| 20260507121918 | -2 | 220 | 3.2 | 12.9 | 0.00 | 0.00 | 0.03 | 6550.2 | |
| 20260507121714 | -2 | 175 | 4.8 | 12.9 | 0.00 | 0.00 | 0.00 | 6550.2 | |
| 20260507121510 | -2 | 234 | 4.8 | 6.4 | 0.00 | 0.00 | 0.00 | 6550.2 | |
| 20260507121306 | -2 | 189 | 4.8 | 6.4 | 0.00 | 0.00 | 0.00 | 6550.2 | |
| 20260507121102 | -2 | 181 | 4.8 | 6.4 | 0.00 | 0.00 | 0.00 | 6550.2 | |
| 20260507120858 | -2 | 125 | 1.6 | 4.8 | 0.00 | 0.00 | 0.00 | 6550.2 | |
| 20260507115920 | -2 | 144 | 4.8 | 9.7 | 0.00 | 0.00 | 0.00 | 6550.2 | |
| 20260507113759 | -2 | 224 | 8.0 | 9.7 | 0.00 | 0.00 | 0.00 | 6550.2 | |
| 20260507113554 | -2 | 242 | 4.8 | 11.3 | 0.00 | 0.00 | 0.00 | 6550.2 | |
| 20260507113146 | -2 | 186 | 8.0 | 11.3 | 0.00 | 0.00 | 0.00 | 6550.2 | |
| 20260507112943 | -2 | 258 | 9.7 | 11.3 | 0.00 | 0.00 | 0.00 | 6550.2 | |
| 20260507112738 | -2 | 180 | 4.8 | 11.3 | 0.00 | 0.00 | 0.00 | 6550.2 | |
| 20260507112347 | -2 | 173 | 1.6 | 8.0 | 0.00 | 0.00 | 0.00 | 6550.2 |